Regional Weather Roundup
Issued by NWS Cleveland, OH

Home | Current Version | Previous Version | Graphics & Text | Print | Product List | Glossary On
Versions: 1 2 3 4 5 6 7 8 9 10 11 12 13 14 15 16 17 18 19 20 21 22 23 24 25 26 27 28 29 30 31 32 33 34 35 36 37 38 39 40 41 42 43 44 45 46 47 48 49 50
000
ASUS41 KCLE 222310
RWRCLE
OHIO REGIONAL WEATHER ROUNDUP
NATIONAL WEATHER SERVICE WILMINGTON, OH
700 PM EDT SUN APR 22 2018

NOTE: "FAIR" INDICATES FEW OR NO CLOUDS BELOW 12,000 FEET WITH NO
SIGNIFICANT WEATHER AND/OR OBSTRUCTIONS TO VISIBILITY.

OHZ001>008-015>018-024>027-034-035-043-044-230000-
   NORTHWEST OHIO

CITY           SKY/WX    TMP DP  RH WIND       PRES   REMARKS
DEFIANCE       FAIR      57  22  25 E14G24    30.29R
FINDLAY        FAIR      57  21  24 NE16      30.26F
TOLEDO EXPRESS FAIR      56  17  21 E18       30.30F
TOLEDO EXEC    FAIR      55  23  28 E9G21     30.32F
LIMA           FAIR      58  32  37 NE16      30.24F
$$

OHZ009>014-019>023-028>033-038-089-230000-
   NORTHEAST OHIO

CITY           SKY/WX    TMP DP  RH WIND       PRES   REMARKS
CLE-HOPKINS    PTSUNNY   55  25  31 NE21      30.31F
CLE-LAKEFRONT  FAIR      47  35  63 NE16      30.28F
CUY CO. ARPT   MOSUNNY   57  27  30 NE17      30.30F
LORAIN-ELYRIA  FAIR      53  19  26 NE23G30   30.30F
ASHTABULA      FAIR      57  21  24 N6G17     30.31F
AKRON-CANTON   FAIR      65  21  18 E8        30.26S
WOOSTER        FAIR      63  27  25 N8        30.26S
MANSFIELD      FAIR      59  29  31 NE8       30.26S
YOUNGSTOWN     PTSUNNY   64  24  21 NE12      30.26F
$$

OHZ042-051>053-060>062-070>072-077>081-230000-
  SOUTHWEST OHIO

CITY           SKY/WX    TMP DP  RH WIND       PRES   REMARKS
CINC-COVINGTON PTSUNNY   63  27  25 E13       30.16F
CINC-LUNKEN    FAIR      63  35  35 NE6       30.18S
HAMILTON       FAIR      64  31  28 E12       30.18F
DAYTON         PTSUNNY   63  30  28 E9        30.21F
WRIGHT-PAT AFB FAIR      64  27  24 E10       30.20F
DAYTON GENERAL FAIR      67  29  24 E12       30.18F
WILMINGTON     FAIR      64  29  26 E7        30.19F
$$

OHZ036-037-039>041-045>050-054>059-063>069-073>076-082>088-230000-
  CENTRAL AND SOUTHEAST OHIO

CITY           SKY/WX    TMP DP  RH WIND       PRES   REMARKS
COLUMBUS       PTSUNNY   66  25  21 E7        30.21F
OSU AIRPORT    FAIR      64  26  23 NE10      30.21F
BOLTON FIELD   SUNNY     64  30  27 E6        30.21F
RICKENBACK AFB FAIR      63  31  30 NE9       30.21S
NEWARK         FAIR      67  27  22 E8        30.21F
MARION         FAIR      62  31  31 NE17      30.24S
LANCASTER      FAIR      64  34  32 NE8       30.21F
ZANESVILLE     FAIR      67  28  23 E6        30.22F
NEW PHILLY     FAIR      68  26  20 CALM      30.23F
$$



USA.gov is the U.S. government's official web portal to all federal, state and local government web resources and services.